#timestamp,LO_Frequency,Hit,StdDev 
1509703215.1,286046999.7,N
1509703216.0,286046999.7,N
1509703235.8,286047001.1,N
1509703255.7,286046998.2,N
1509703275.5,286047000.2,N
1509703295.3,286047002.3,N
1509703315.2,286047002.3,N
1509703335.9,286047000.5,N
1509703355.7,286046998.6,N
1509703375.6,286046999.8,N
1509703395.4,286047003.6,N
1509703415.2,286047007.3,Y
1509703435.1,286047004.8,P
1509703436.0,286047004.8,N
1509703455.8,286047001.6,N
1509703475.6,286047000.8,N
1509703495.5,286046995.1,N
1509703515.3,286046996.5,N
1509703535.1,286046998.4,N
1509703555.9,286046999.0,N
1509703575.7,286047000.6,N
1509703595.5,286047002.2,N
1509703615.4,286047001.1,N
1509703635.2,286047002.5,N
1509703655.0,286047001.4,N
1509703655.9,286047001.4,N
1509703675.8,286047000.5,N
1509703695.6,286046997.7,N
1509703715.4,286046999.5,N
1509703735.3,286046999.5,N
1509703755.1,286046999.6,N
1509703775.8,286046996.8,N
1509703795.7,286046995.8,N
1509703815.5,286046995.6,N
1509703835.4,286046993.9,N
1509703855.2,286046998.4,N
1509703875.0,286046999.8,N
1509703875.9,286046999.8,N
1509703895.8,286046998.7,N
1509703915.6,286046999.0,N
1509703935.4,286046999.1,N
1509703955.3,286046996.6,N
1509703975.1,286046998.4,N
1509703976.0,286046998.4,N
1509703995.8,286046998.3,N
1509704015.7,286046999.3,N
1509704035.5,286046999.3,N
1509704055.3,286047000.3,N
1509704075.2,286047002.0,N
1509704095.0,286047002.4,N
1509704095.9,286047002.4,N
1509704115.7,286047002.2,N
1509704135.6,286047002.7,N
1509704155.4,286047003.9,N
1509704175.2,286047003.2,N
1509704195.1,286047004.2,N
1509704196.0,286047004.2,N
1509704215.8,286046998.4,N
1509704235.7,286046998.9,N
1509704255.5,286047000.7,N
1509704275.3,286046999.9,N
1509704295.2,286046999.3,N
1509704315.9,286046998.8,N
1509704335.7,286047000.6,N
1509704355.6,286047003.6,N
1509704375.4,286047001.7,N
1509704395.2,286047001.7,N
1509704415.1,286047005.5,N
1509704416.0,286047005.5,N
1509704435.8,286047005.2,N
1509704455.6,286047004.1,N
1509704475.5,286047002.8,N
1509704495.3,286047002.7,N
1509704515.1,286046998.4,N
1509704535.9,286047001.3,N
1509704555.7,286047001.4,N
1509704575.5,286047003.5,N
1509704595.4,286047006.0,N
1509704615.2,286047003.1,N
1509704635.0,286047004.2,N
1509704635.9,286047004.2,N
1509704655.8,286047001.7,N
1509704675.6,286047002.8,N
1509704695.4,286047002.0,N
1509704715.3,286047003.4,N
1509704735.1,286047002.9,N
1509704755.8,286046999.8,N
1509704775.7,286047007.4,Y
1509704795.5,286047003.2,P
1509704815.4,286047000.8,N
1509704835.2,286046999.5,N
1509704855.0,286046997.0,N
1509704855.9,286046997.0,N
1509704875.8,286046998.7,N
1509704895.6,286046999.2,N
1509704915.4,286046992.1,Y
1509704935.3,286046996.4,P
1509704955.1,286046997.4,N
1509704975.8,286046997.9,N
1509704995.7,286047001.9,N
1509705015.5,286046998.4,N
1509705035.3,286046998.2,N
1509705055.2,286047001.7,N
1509705075.0,286047006.3,Y
1509705075.9,286047006.3,P
1509705095.8,286047007.3,N
1509705115.6,286047009.0,N
1509705135.4,286047006.4,N
1509705155.3,286047010.1,N
1509705175.1,286047011.9,Y
1509705195.8,286047003.0,P
1509705215.7,286047003.4,N
1509705235.5,286047002.4,N
1509705255.3,286047000.7,N
1509705275.2,286047001.0,N
1509705295.9,286047000.9,N
1509705315.7,286046996.6,N
1509705335.6,286046995.6,N
1509705355.4,286046995.1,N
1509705375.2,286046996.6,N
1509705395.1,286046997.6,N
1509705396.0,286046997.6,N
1509705415.8,286046993.5,N
1509705435.6,286046991.7,N
1509705455.5,286046995.6,N
1509705475.3,286046997.6,N
1509705495.1,286046995.9,N
1509705515.9,286046992.2,N
1509705535.7,286046995.2,N
1509705555.5,286046996.4,N
1509705575.4,286046996.9,N
1509705595.2,286046998.2,N
1509705615.0,286047000.9,N
1509705615.9,286047000.9,N
1509705635.8,286046996.3,N
1509705655.6,286046995.5,N
1509705675.5,286046996.1,N
1509705695.3,286046996.4,N
1509705715.1,286046993.6,N
1509705735.9,286046996.1,N
1509705755.7,286047001.0,N
1509705775.5,286046999.4,N
1509705795.3,286046999.3,N
1509705815.2,286046998.5,N
1509705835.0,286046999.4,N
1509705835.9,286046999.4,N
1509705855.7,286046996.7,N
1509705875.6,286046998.4,N
1509705895.4,286046997.0,N
1509705915.3,286046997.7,N
1509705935.1,286046999.2,N
1509705936.0,286046999.2,N
1509705955.8,286047001.1,N
1509705975.7,286046996.9,N
1509705995.5,286047001.1,N
1509706015.3,286046998.1,N
1509706035.2,286047000.3,N
1509706055.9,286046998.1,N
1509706075.7,286046997.2,N
1509706095.6,286046995.0,N
1509706115.4,286046997.8,N
1509706135.2,286046991.1,Y
1509706155.1,286046993.5,P
1509706156.0,286046993.5,N
1509706175.8,286046994.5,N
1509706195.6,286046997.5,N
1509706215.5,286046995.8,N
1509706235.3,286046990.2,Y
1509706255.1,286046996.3,P
1509706275.9,286046995.6,P
1509706295.7,286046997.7,P
1509706315.5,286046998.4,N
1509706335.4,286047001.0,N
1509706355.2,286047000.4,N
1509706375.0,286046995.5,N
1509706376.0,286046995.5,N
1509706395.8,286046997.2,N
1509706415.6,286046998.4,N
1509706435.5,286046997.6,N
1509706455.3,286046995.1,N
1509706475.1,286046996.7,N
1509706495.9,286046997.2,N
1509706515.7,286046997.4,N
1509706535.5,286046997.5,N
1509706555.4,286046996.9,N
1509706575.2,286046995.7,N
1509706595.0,286046995.7,N
1509706595.9,286046995.7,N
1509706615.8,286046995.4,N
1509706635.6,286046999.2,N
1509706655.4,286046999.4,N
1509706675.3,286046997.2,N
1509706695.1,286046997.3,N
1509706696.0,286046997.3,N
1509706715.8,286046998.3,N
1509706735.7,286047000.9,N
1509706755.5,286047001.0,N
1509706775.3,286046999.4,N
1509706795.2,286046999.2,N
